When you browse on this site, cookies collect data to enhance your experience and personalize the content and advertising you see.
Visit our Privacy Policy to learn more. By continuing to use the site, you agree to this use of cookies and data.
  • In Slovakia
  • List of Countries
  • For 7 days
  • Water Temperature
  • Satellite Maps
  • Weather Map
  • Weather Widgets
  • user-avatar
    Login

    Hourly Weather Salta

    Today, 12 December, Wednesday

    Time Temperature Precipitation Wind Pressure Humidity
    00:00 +25°C° 0 mm 1 mps 651 mmHg 66%
    01:00 +25°C° 0 mm 1 mps 650 mmHg 66%
    02:00 +25°C° 0 mm 1 mps 650 mmHg 65%
    03:00 +24°C° 0 mm 1 mps 650 mmHg 66%
    04:00 +24°C° 0 mm 1 mps 650 mmHg 66%
    05:00 +24°C° 0 mm 1 mps 650 mmHg 67%
    06:00 +25°C° 0 mm 2 mps 651 mmHg 62%
    07:00 +27°C° 0 mm 2 mps 652 mmHg 58%
    08:00 +29°C° 0 mm 2 mps 654 mmHg 53%
    09:00 +30°C° 0.3 mm 2 mps 654 mmHg 50%
    10:00 +31°C° 0.3 mm 3 mps 654 mmHg 47%
    11:00 +34°C° 0.3 mm 3 mps 654 mmHg 44%
    12:00 +34°C° 1.1 mm 3 mps 653 mmHg 45%
    13:00 +34°C° 1.1 mm 4 mps 653 mmHg 46%
    14:00 +34°C° 1.1 mm 4 mps 652 mmHg 47%
    15:00 +33°C° 2.3 mm 3 mps 651 mmHg 51%
    16:00 +31°C° 2.3 mm 3 mps 650 mmHg 55%
    17:00 +30°C° 2.3 mm 3 mps 649 mmHg 59%
    18:00 +28°C° 1 mm 2 mps 649 mmHg 65%
    19:00 +27°C° 1 mm 2 mps 650 mmHg 72%
    20:00 +25°C° 1 mm 1 mps 650 mmHg 78%
    21:00 +25°C° 0.6 mm 1 mps 650 mmHg 79%
    22:00 +25°C° 0.6 mm 1 mps 650 mmHg 80%
    23:00 +24°C° 0.6 mm 1 mps 651 mmHg 80%

    Tomorrow, 13 December, Thursday

    Time Temperature Precipitation Wind Pressure Humidity
    00:00 +24°C° 0.4 mm 1 mps 650 mmHg 79%
    01:00 +24°C° 0.4 mm 1 mps 650 mmHg 77%
    02:00 +24°C° 0.4 mm 2 mps 649 mmHg 75%
    03:00 +24°C° 0 mm 2 mps 649 mmHg 74%
    04:00 +23°C° 0 mm 2 mps 649 mmHg 73%
    05:00 +23°C° 0 mm 2 mps 649 mmHg 72%
    06:00 +25°C° 0 mm 2 mps 649 mmHg 65%
    07:00 +27°C° 0 mm 2 mps 650 mmHg 59%
    08:00 +29°C° 0 mm 2 mps 651 mmHg 52%
    09:00 +30°C° 0 mm 3 mps 651 mmHg 47%
    10:00 +33°C° 0 mm 3 mps 650 mmHg 41%
    11:00 +35°C° 0 mm 4 mps 650 mmHg 36%
    12:00 +36°C° 0.1 mm 4 mps 649 mmHg 35%
    13:00 +36°C° 0.1 mm 4 mps 649 mmHg 34%
    14:00 +37°C° 0.1 mm 4 mps 648 mmHg 33%
    15:00 +36°C° 0.9 mm 4 mps 647 mmHg 36%
    16:00 +35°C° 0.9 mm 4 mps 646 mmHg 38%
    17:00 +35°C° 0.9 mm 3 mps 646 mmHg 41%
    18:00 +33°C° 0.4 mm 3 mps 646 mmHg 47%
    19:00 +30°C° 0.4 mm 2 mps 646 mmHg 53%
    20:00 +28°C° 0.4 mm 1 mps 646 mmHg 59%
    21:00 +28°C° 0.3 mm 1 mps 646 mmHg 60%
    22:00 +27°C° 0.3 mm 1 mps 647 mmHg 61%
    23:00 +27°C° 0.3 mm 1 mps 647 mmHg 62%

    Day after tomorrow, 14 December, Friday

    Time Temperature Precipitation Wind Pressure Humidity
    00:00 +26°C° 0 mm 1 mps 647 mmHg 60%
    01:00 +26°C° 0 mm 1 mps 646 mmHg 58%
    02:00 +26°C° 0 mm 1 mps 646 mmHg 57%
    03:00 +25°C° 0 mm 1 mps 646 mmHg 54%
    04:00 +25°C° 0 mm 2 mps 646 mmHg 51%
    05:00 +25°C° 0 mm 2 mps 646 mmHg 48%
    06:00 +27°C° 0 mm 2 mps 647 mmHg 43%
    07:00 +29°C° 0 mm 2 mps 649 mmHg 39%
    08:00 +31°C° 0 mm 2 mps 650 mmHg 35%
    09:00 +33°C° 0.2 mm 3 mps 650 mmHg 35%
    10:00 +34°C° 0.2 mm 3 mps 651 mmHg 35%
    11:00 +35°C° 0.2 mm 4 mps 651 mmHg 35%
    12:00 +35°C° 0.8 mm 4 mps 651 mmHg 36%
    13:00 +35°C° 0.8 mm 5 mps 650 mmHg 36%
    14:00 +35°C° 0.8 mm 5 mps 650 mmHg 37%
    15:00 +34°C° 2 mm 5 mps 649 mmHg 45%
    16:00 +32°C° 2 mm 4 mps 649 mmHg 53%
    17:00 +29°C° 2 mm 4 mps 648 mmHg 60%
    18:00 +28°C° 2.7 mm 3 mps 649 mmHg 67%
    19:00 +26°C° 2.7 mm 2 mps 649 mmHg 74%
    20:00 +25°C° 2.7 mm 2 mps 650 mmHg 81%
    21:00 +24°C° 2.3 mm 2 mps 650 mmHg 82%
    22:00 +24°C° 2.3 mm 1 mps 651 mmHg 82%
    23:00 +24°C° 2.3 mm 1 mps 652 mmHg 82%

    15 December, Saturday

    Time Temperature Precipitation Wind Pressure Humidity
    00:00 +23°C° 1.3 mm 1 mps 651 mmHg 84%
    01:00 +23°C° 1.3 mm 2 mps 651 mmHg 86%
    02:00 +21°C° 1.3 mm 2 mps 651 mmHg 87%
    03:00 +21°C° 1.3 mm 2 mps 651 mmHg 88%
    04:00 +21°C° 1.3 mm 2 mps 651 mmHg 88%
    05:00 +21°C° 1.3 mm 2 mps 651 mmHg 88%
    06:00 +21°C° 1.7 mm 2 mps 652 mmHg 87%
    07:00 +21°C° 1.7 mm 2 mps 653 mmHg 86%
    08:00 +21°C° 1.7 mm 2 mps 653 mmHg 85%
    09:00 +21°C° 2.1 mm 2 mps 653 mmHg 85%
    10:00 +21°C° 2.1 mm 2 mps 653 mmHg 86%
    11:00 +21°C° 2.1 mm 2 mps 653 mmHg 86%
    12:00 +23°C° 0.4 mm 2 mps 652 mmHg 82%
    13:00 +23°C° 0.4 mm 2 mps 652 mmHg 79%
    14:00 +24°C° 0.4 mm 2 mps 651 mmHg 75%
    15:00 +24°C° 0.3 mm 2 mps 651 mmHg 74%
    16:00 +24°C° 0.3 mm 2 mps 650 mmHg 73%
    17:00 +24°C° 0.3 mm 2 mps 650 mmHg 72%
    18:00 +24°C° 0.3 mm 2 mps 650 mmHg 76%
    19:00 +23°C° 0.3 mm 1 mps 651 mmHg 80%
    20:00 +22°C° 0.3 mm 1 mps 651 mmHg 84%
    21:00 +22°C° 0.1 mm 1 mps 651 mmHg 85%
    22:00 +21°C° 0.1 mm 1 mps 652 mmHg 85%
    23:00 +19°C° 0.1 mm 0 mps 652 mmHg 86%

    16 December, Sunday

    Time Temperature Precipitation Wind Pressure Humidity
    00:00 +21°C° 0 mm 1 mps 652 mmHg 86%
    01:00 +21°C° 0 mm 1 mps 651 mmHg 86%
    02:00 +20°C° 0 mm 1 mps 651 mmHg 87%
    03:00 +20°C° 0 mm 1 mps 651 mmHg 87%
    04:00 +20°C° 0 mm 1 mps 651 mmHg 87%
    05:00 +18°C° 0 mm 0 mps 651 mmHg 87%
    06:00 +21°C° 0 mm 1 mps 652 mmHg 82%
    07:00 +22°C° 0 mm 1 mps 652 mmHg 77%
    08:00 +23°C° 0 mm 1 mps 653 mmHg 73%
    09:00 +25°C° 0 mm 1 mps 653 mmHg 68%
    10:00 +26°C° 0 mm 2 mps 653 mmHg 63%
    11:00 +28°C° 0 mm 2 mps 653 mmHg 58%
    12:00 +28°C° 0.2 mm 2 mps 653 mmHg 58%
    13:00 +28°C° 0.2 mm 3 mps 652 mmHg 58%
    14:00 +28°C° 0.2 mm 3 mps 652 mmHg 59%
    15:00 +28°C° 0.2 mm 3 mps 651 mmHg 61%
    16:00 +27°C° 0.2 mm 2 mps 651 mmHg 63%
    17:00 +27°C° 0.2 mm 2 mps 651 mmHg 64%
    18:00 +26°C° 0.2 mm 2 mps 651 mmHg 69%
    19:00 +25°C° 0.2 mm 1 mps 651 mmHg 74%
    20:00 +23°C° 0.2 mm 1 mps 652 mmHg 78%
    21:00 +23°C° 0.2 mm 1 mps 652 mmHg 79%
    22:00 +23°C° 0.2 mm 1 mps 652 mmHg 79%
    23:00 +23°C° 0.2 mm 1 mps 652 mmHg 79%

    17 December, Monday

    Time Temperature Precipitation Wind Pressure Humidity
    00:00 +22°C° 0.2 mm 1 mps 652 mmHg 79%
    01:00 +22°C° 0.2 mm 1 mps 652 mmHg 79%
    02:00 +22°C° 0.2 mm 1 mps 651 mmHg 79%
    03:00 +22°C° 0.3 mm 1 mps 651 mmHg 78%
    04:00 +22°C° 0.3 mm 1 mps 651 mmHg 77%
    05:00 +22°C° 0.3 mm 1 mps 651 mmHg 77%
    06:00 +22°C° 0.6 mm 1 mps 652 mmHg 75%
    07:00 +23°C° 0.6 mm 1 mps 652 mmHg 73%
    08:00 +23°C° 0.6 mm 1 mps 653 mmHg 71%
    09:00 +24°C° 0.8 mm 1 mps 653 mmHg 68%
    10:00 +25°C° 0.8 mm 1 mps 653 mmHg 65%
    11:00 +26°C° 0.8 mm 1 mps 653 mmHg 62%
    12:00 +26°C° 0.5 mm 2 mps 653 mmHg 60%
    13:00 +26°C° 0.5 mm 2 mps 653 mmHg 58%
    14:00 +27°C° 0.5 mm 2 mps 653 mmHg 56%
    15:00 +26°C° 0.5 mm 2 mps 652 mmHg 59%
    16:00 +26°C° 0.5 mm 1 mps 652 mmHg 61%
    17:00 +26°C° 0.5 mm 1 mps 652 mmHg 63%
    18:00 +24°C° 0.6 mm 1 mps 652 mmHg 67%
    19:00 +23°C° 0.6 mm 1 mps 652 mmHg 72%
    20:00 +22°C° 0.6 mm 1 mps 652 mmHg 76%
    21:00 +22°C° 0.6 mm 1 mps 652 mmHg 76%
    22:00 +22°C° 0.6 mm 1 mps 652 mmHg 77%
    23:00 +22°C° 0.6 mm 1 mps 652 mmHg 77%
    Show more